カタログに戻る

STARLINK-30324

運用中通信VLEO
NORAD 57640·PAYLOAD·🇺🇸 United States

打ち上げ Aug 17, 2023 から Cape Canaveral Space Force Station

Loading…

次のパス (今後24時間)

TLE

最新Source: CelesTrak SupGP

元期: Sep 14, 2026, 20:42 UTC

1 57640C 23122J   26257.86298611 -.00081728  00000+0 -29659-2 0  2572
2 57640  43.0006 104.3963 0001763 267.7469 166.3928 15.27555716    11

AllMySatでSTARLINK-30324をリアルタイム追跡

Download on the App Store